When you browse on this site, cookies collect data to enhance your experience and personalize the content and advertising you see.
Visit our Privacy Policy to learn more. By continuing to use the site, you agree to this use of cookies and data.
  • en Belgique
  • Liste des pays
  • À 7 jours
  • Température de l'eau
  • Carte satellitaire
  • Carte météo
  • Widgets météo
  • user-avatar
    Se connecter

    Météo par heure à Stuttgart

    Ce jour, 19 Avril, Vendredi

    Heure Température Précipitation Vent Pression Humidité
    00:00 +12°C° 0 mm 2 m/s 741 mmHg 77%
    01:00 +10°C° 0 mm 2 m/s 741 mmHg 79%
    02:00 +9°C° 0 mm 2 m/s 741 mmHg 81%
    03:00 +9°C° 0 mm 2 m/s 741 mmHg 83%
    04:00 +9°C° 0 mm 1 m/s 741 mmHg 85%
    05:00 +10°C° 0 mm 1 m/s 742 mmHg 83%
    06:00 +10°C° 0 mm 1 m/s 742 mmHg 82%
    07:00 +11°C° 0 mm 1 m/s 743 mmHg 80%
    08:00 +13°C° 0 mm 2 m/s 743 mmHg 72%
    09:00 +15°C° 0 mm 2 m/s 743 mmHg 65%
    10:00 +18°C° 0 mm 2 m/s 743 mmHg 57%
    11:00 +19°C° 0 mm 2 m/s 743 mmHg 53%
    12:00 +20°C° 0 mm 2 m/s 743 mmHg 49%
    13:00 +23°C° 0 mm 2 m/s 743 mmHg 45%
    14:00 +22°C° 0 mm 3 m/s 743 mmHg 45%
    15:00 +22°C° 0 mm 3 m/s 743 mmHg 46%
    16:00 +22°C° 0 mm 3 m/s 743 mmHg 47%
    17:00 +20°C° 0 mm 3 m/s 743 mmHg 53%
    18:00 +18°C° 0 mm 3 m/s 743 mmHg 58%
    19:00 +17°C° 0 mm 2 m/s 743 mmHg 64%
    20:00 +15°C° 0 mm 2 m/s 743 mmHg 65%
    21:00 +14°C° 0 mm 2 m/s 743 mmHg 66%
    22:00 +12°C° 0 mm 1 m/s 744 mmHg 67%
    23:00 +12°C° 0 mm 1 m/s 744 mmHg 69%

    Demain, 20 Avril, Samedi

    Heure Température Précipitation Vent Pression Humidité
    00:00 +11°C° 0 mm 1 m/s 744 mmHg 71%
    01:00 +11°C° 0 mm 1 m/s 744 mmHg 73%
    02:00 +10°C° 0 mm 1 m/s 744 mmHg 77%
    03:00 +10°C° 0 mm 1 m/s 744 mmHg 81%
    04:00 +9°C° 0 mm 1 m/s 744 mmHg 84%
    05:00 +10°C° 0 mm 1 m/s 744 mmHg 83%
    06:00 +10°C° 0 mm 1 m/s 744 mmHg 81%
    07:00 +11°C° 0 mm 1 m/s 744 mmHg 80%
    08:00 +13°C° 0 mm 1 m/s 744 mmHg 73%
    09:00 +15°C° 0 mm 2 m/s 743 mmHg 66%
    10:00 +17°C° 0 mm 2 m/s 743 mmHg 59%
    11:00 +19°C° 0 mm 2 m/s 743 mmHg 56%
    12:00 +20°C° 0 mm 3 m/s 743 mmHg 52%
    13:00 +21°C° 0 mm 3 m/s 743 mmHg 48%
    14:00 +22°C° 0 mm 3 m/s 742 mmHg 46%
    15:00 +22°C° 0 mm 4 m/s 742 mmHg 45%
    16:00 +22°C° 0 mm 4 m/s 741 mmHg 43%
    17:00 +20°C° 0 mm 3 m/s 741 mmHg 49%
    18:00 +18°C° 0 mm 3 m/s 741 mmHg 55%
    19:00 +17°C° 0 mm 2 m/s 741 mmHg 60%
    20:00 +15°C° 0 mm 2 m/s 741 mmHg 63%
    21:00 +14°C° 0 mm 1 m/s 741 mmHg 65%
    22:00 +13°C° 0 mm 1 m/s 741 mmHg 67%
    23:00 +12°C° 0 mm 1 m/s 741 mmHg 69%

    Après-demain, 21 Avril, Dimanche

    Heure Température Précipitation Vent Pression Humidité
    00:00 +11°C° 0 mm 1 m/s 741 mmHg 71%
    01:00 +11°C° 0 mm 1 m/s 741 mmHg 73%
    02:00 +10°C° 0 mm 1 m/s 741 mmHg 74%
    03:00 +9°C° 0 mm 1 m/s 740 mmHg 75%
    04:00 +9°C° 0 mm 1 m/s 740 mmHg 76%
    05:00 +10°C° 0 mm 1 m/s 740 mmHg 73%
    06:00 +10°C° 0 mm 1 m/s 740 mmHg 71%
    07:00 +11°C° 0 mm 1 m/s 740 mmHg 68%
    08:00 +13°C° 0 mm 2 m/s 739 mmHg 62%
    09:00 +15°C° 0 mm 2 m/s 739 mmHg 55%
    10:00 +17°C° 0 mm 3 m/s 739 mmHg 49%
    11:00 +19°C° 0 mm 3 m/s 738 mmHg 45%
    12:00 +20°C° 0 mm 3 m/s 738 mmHg 42%
    13:00 +21°C° 0 mm 4 m/s 737 mmHg 38%
    14:00 +21°C° 0 mm 4 m/s 737 mmHg 39%
    15:00 +21°C° 0 mm 4 m/s 736 mmHg 39%
    16:00 +21°C° 0 mm 4 m/s 736 mmHg 40%
    17:00 +20°C° 0 mm 3 m/s 735 mmHg 46%
    18:00 +18°C° 0 mm 3 m/s 735 mmHg 52%
    19:00 +16°C° 0 mm 2 m/s 735 mmHg 58%
    20:00 +15°C° 0 mm 2 m/s 735 mmHg 61%
    21:00 +14°C° 0 mm 1 m/s 735 mmHg 64%
    22:00 +12°C° 0 mm 1 m/s 734 mmHg 67%
    23:00 +12°C° 0 mm 1 m/s 734 mmHg 70%

    22 Avril, Lundi

    Heure Température Précipitation Vent Pression Humidité
    00:00 +11°C° 0 mm 1 m/s 734 mmHg 72%
    01:00 +11°C° 0 mm 1 m/s 734 mmHg 75%
    02:00 +10°C° 0 mm 1 m/s 733 mmHg 77%
    03:00 +9°C° 0 mm 1 m/s 733 mmHg 79%
    04:00 +9°C° 0 mm 1 m/s 732 mmHg 81%
    05:00 +9°C° 0 mm 1 m/s 732 mmHg 80%
    06:00 +10°C° 0 mm 1 m/s 732 mmHg 78%
    07:00 +11°C° 0 mm 1 m/s 732 mmHg 76%
    08:00 +13°C° 0 mm 2 m/s 731 mmHg 70%
    09:00 +15°C° 0 mm 2 m/s 730 mmHg 64%
    10:00 +17°C° 0 mm 3 m/s 730 mmHg 58%
    11:00 +18°C° 0 mm 3 m/s 729 mmHg 55%
    12:00 +19°C° 0 mm 3 m/s 729 mmHg 52%
    13:00 +21°C° 0 mm 3 m/s 728 mmHg 50%
    14:00 +21°C° 0 mm 3 m/s 728 mmHg 50%
    15:00 +21°C° 0 mm 4 m/s 727 mmHg 50%
    16:00 +22°C° 0 mm 4 m/s 726 mmHg 51%
    17:00 +20°C° 0 mm 3 m/s 726 mmHg 57%
    18:00 +19°C° 0 mm 3 m/s 725 mmHg 63%
    19:00 +17°C° 0 mm 2 m/s 725 mmHg 70%
    20:00 +16°C° 0 mm 3 m/s 725 mmHg 71%
    21:00 +14°C° 0 mm 3 m/s 725 mmHg 72%
    22:00 +13°C° 0 mm 3 m/s 725 mmHg 74%
    23:00 +13°C° 0 mm 2 m/s 724 mmHg 76%

    23 Avril, Mardi

    Heure Température Précipitation Vent Pression Humidité
    00:00 +12°C° 0 mm 2 m/s 724 mmHg 79%
    01:00 +11°C° 0 mm 1 m/s 724 mmHg 82%
    02:00 +11°C° 0 mm 1 m/s 724 mmHg 84%
    03:00 +10°C° 0 mm 1 m/s 723 mmHg 86%
    04:00 +9°C° 0 mm 0 m/s 723 mmHg 88%
    05:00 +10°C° 0 mm 1 m/s 723 mmHg 86%
    06:00 +11°C° 0 mm 1 m/s 723 mmHg 84%
    07:00 +12°C° 0 mm 1 m/s 723 mmHg 82%
    08:00 +14°C° 0 mm 1 m/s 723 mmHg 74%
    09:00 +18°C° 0 mm 1 m/s 723 mmHg 67%
    10:00 +18°C° 0 mm 0 m/s 723 mmHg 59%
    11:00 +19°C° 0 mm 0 m/s 723 mmHg 55%
    12:00 +21°C° 0 mm 0 m/s 723 mmHg 51%
    13:00 +23°C° 0 mm 0 m/s 723 mmHg 46%
    14:00 +23°C° 0 mm 0 m/s 723 mmHg 46%
    15:00 +23°C° 0 mm 0 m/s 723 mmHg 45%
    16:00 +22°C° 0 mm 0 m/s 723 mmHg 45%
    17:00 +21°C° 0 mm 0 m/s 723 mmHg 51%
    18:00 +19°C° 0 mm 0 m/s 724 mmHg 58%
    19:00 +18°C° 0 mm 0 m/s 724 mmHg 65%
    20:00 +19°C° 0 mm 1 m/s 724 mmHg 68%
    21:00 +18°C° 0 mm 1 m/s 725 mmHg 71%
    22:00 +16°C° 0 mm 1 m/s 726 mmHg 74%
    23:00 +15°C° 0 mm 1 m/s 726 mmHg 76%

    24 Avril, Mercredi

    Heure Température Précipitation Vent Pression Humidité
    00:00 +15°C° 0 mm 1 m/s 727 mmHg 78%
    01:00 +14°C° 0 mm 1 m/s 727 mmHg 79%
    02:00 +14°C° 0 mm 1 m/s 728 mmHg 80%
    03:00 +13°C° 0 mm 1 m/s 728 mmHg 80%
    04:00 +13°C° 0 mm 1 m/s 728 mmHg 81%
    05:00 +14°C° 0 mm 1 m/s 729 mmHg 79%
    06:00 +14°C° 0 mm 0 m/s 729 mmHg 77%
    07:00 +14°C° 0 mm 0 m/s 729 mmHg 75%
    08:00 +18°C° 0 mm 1 m/s 730 mmHg 69%
    09:00 +19°C° 0 mm 1 m/s 730 mmHg 64%
    10:00 +20°C° 0 mm 2 m/s 730 mmHg 58%
    11:00 +21°C° 0 mm 2 m/s 730 mmHg 55%
    12:00 +23°C° 0 mm 2 m/s 730 mmHg 52%
    13:00 +24°C° 0 mm 2 m/s 730 mmHg 48%
    14:00 +24°C° 0 mm 2 m/s 730 mmHg 48%
    15:00 +25°C° 0 mm 2 m/s 730 mmHg 49%
    16:00 +25°C° 0 mm 2 m/s 730 mmHg 49%
    17:00 +24°C° 0 mm 2 m/s 729 mmHg 56%
    18:00 +21°C° 0 mm 2 m/s 729 mmHg 63%
    19:00 +20°C° 0 mm 2 m/s 729 mmHg 70%
    20:00 +19°C° 0 mm 2 m/s 729 mmHg 73%
    21:00 +18°C° 0 mm 2 m/s 730 mmHg 75%
    22:00 +17°C° 0 mm 2 m/s 730 mmHg 77%
    23:00 +16°C° 0 mm 2 m/s 730 mmHg 79%
    Voir plus